Time,TemperatureF,DewpointF,PressureIn,WindDirection,WindDirectionDegrees,WindSpeedMPH,WindSpeedGustMPH,Humidity,HourlyPrecipIn,Conditions,Clouds,dailyrainin,SoftwareType,DateUTC
2013-07-16 00:01:00,78.6,73.0,30.06,SE,132,9.2,9.2,83,0.00,RA,,0.00,WeatherDisplay:10.37,2013-07-16 04:01:00,
2013-07-16 00:06:00,78.7,73.1,30.06,East,84,10.4,10.4,83,0.00,RA,,0.00,WeatherDisplay:10.37,2013-07-16 04:06:00,
2013-07-16 00:11:00,78.8,73.2,30.06,ESE,120,4.6,4.6,83,0.00,CLR,,0.00,WeatherDisplay:10.37,2013-07-16 04:11:00,
2013-07-16 00:16:00,78.7,73.1,30.06,SE,134,4.0,4.0,83,0.00,CLR,,0.00,WeatherDisplay:10.37,2013-07-16 04:16:00,
2013-07-16 00:21:00,78.6,73.0,30.06,SE,131,4.6,4.6,83,0.00,CLR,,0.00,WeatherDisplay:10.37,2013-07-16 04:21:00,
2013-07-16 00:26:00,78.6,73.4,30.06,NE,56,10.4,10.4,84,0.00,CLR,,0.00,WeatherDisplay:10.37,2013-07-16 04:26:00,
2013-07-16 00:31:00,78.7,73.1,30.06,ESE,111,10.4,10.4,83,0.00,CLR,,0.00,WeatherDisplay:10.37,2013-07-16 04:31:00,
2013-07-16 00:36:00,78.7,72.7,30.06,ESE,119,4.6,4.6,82,0.00,CLR,,0.00,WeatherDisplay:10.37,2013-07-16 04:36:00,
2013-07-16 00:41:00,78.7,72.7,30.06,ESE,115,5.8,5.8,82,0.00,CLR,,0.00,WeatherDisplay:10.37,2013-07-16 04:41:00,
2013-07-16 00:45:00,78.6,72.6,30.06,ESE,108,4.6,4.6,82,0.00,CLR,,0.00,WeatherDisplay:10.37,2013-07-16 04:45:00,
2013-07-16 00:50:00,78.5,72.9,30.06,East,100,3.5,3.5,83,0.00,CLR,,0.00,WeatherDisplay:10.37,2013-07-16 04:50:00,
2013-07-16 00:55:00,78.5,72.9,30.05,SE,126,4.0,4.0,83,0.00,CLR,,0.00,WeatherDisplay:10.37,2013-07-16 04:55:00,
2013-07-16 01:00:00,78.3,72.7,30.05,ESE,118,4.6,4.6,83,0.00,CLR,,0.00,WeatherDisplay:10.37,2013-07-16 05:00:00,
2013-07-16 01:05:00,78.3,73.1,30.05,ESE,122,4.6,4.6,84,0.00,CLR,,0.00,WeatherDisplay:10.37,2013-07-16 05:05:00,
2013-07-16 01:10:00,78.3,73.1,30.05,SE,127,3.5,3.5,84,0.00,CLR,,0.00,WeatherDisplay:10.37,2013-07-16 05:10:00,
2013-07-16 01:15:00,78.2,73.0,30.05,East,98,4.6,4.6,84,0.00,CLR,,0.00,WeatherDisplay:10.37,2013-07-16 05:15:00,
2013-07-16 01:20:00,78.2,73.0,30.05,SE,126,6.0,6.0,84,0.00,CLR,,0.00,WeatherDisplay:10.37,2013-07-16 05:20:00,
2013-07-16 01:25:00,78.3,73.1,30.05,SE,128,6.9,6.9,84,0.00,CLR,,0.00,WeatherDisplay:10.37,2013-07-16 05:25:00,
2013-07-16 01:30:00,78.3,73.1,30.04,ESE,106,4.6,4.6,84,0.00,CLR,,0.00,WeatherDisplay:10.37,2013-07-16 05:30:00,
2013-07-16 01:35:00,78.3,73.1,30.05,ESE,121,4.0,4.0,84,0.00,CLR,,0.00,WeatherDisplay:10.37,2013-07-16 05:35:00,
2013-07-16 01:40:00,78.3,73.1,30.05,ESE,115,5.0,5.0,84,0.00,CLR,,0.00,WeatherDisplay:10.37,2013-07-16 05:40:00,
2013-07-16 01:45:00,78.3,73.1,30.05,East,92,3.5,3.5,84,0.00,CLR,,0.00,WeatherDisplay:10.37,2013-07-16 05:45:00,
2013-07-16 01:50:00,78.3,73.1,30.05,East,96,6.9,6.9,84,0.00,CLR,,0.00,WeatherDisplay:10.37,2013-07-16 05:50:00,
2013-07-16 01:55:00,78.5,73.3,30.05,East,84,5.8,5.8,84,0.00,CLR,,0.00,WeatherDisplay:10.37,2013-07-16 05:55:00,
2013-07-16 02:00:00,78.7,73.1,30.05,ESE,102,6.0,6.0,83,0.00,CLR,,0.00,WeatherDisplay:10.37,2013-07-16 06:00:00,
2013-07-16 02:05:00,78.6,73.0,30.05,East,85,6.9,6.9,83,0.00,CLR,,0.00,WeatherDisplay:10.37,2013-07-16 06:05:00,
2013-07-16 02:10:00,78.8,72.5,30.05,East,94,6.9,6.9,81,0.00,CLR,,0.00,WeatherDisplay:10.37,2013-07-16 06:10:00,
2013-07-16 02:15:00,78.9,72.6,30.05,East,101,11.5,11.5,81,0.00,CLR,,0.00,WeatherDisplay:10.37,2013-07-16 06:15:00,
2013-07-16 02:20:00,79.0,72.7,30.05,East,80,4.6,4.6,81,0.00,CLR,,0.00,WeatherDisplay:10.37,2013-07-16 06:20:00,
2013-07-16 02:25:00,79.0,72.7,30.04,East,88,4.6,4.6,81,0.00,CLR,,0.00,WeatherDisplay:10.37,2013-07-16 06:25:00,
2013-07-16 02:30:00,79.1,73.1,30.04,East,101,6.9,6.9,82,0.00,CLR,,0.00,WeatherDisplay:10.37,2013-07-16 06:30:00,
2013-07-16 02:35:00,79.0,73.0,30.05,East,82,11.5,11.5,82,0.00,CLR,,0.00,WeatherDisplay:10.37,2013-07-16 06:35:00,
2013-07-16 02:40:00,79.0,73.0,30.05,NE,36,10.4,10.4,82,0.00,CLR,,0.00,WeatherDisplay:10.37,2013-07-16 06:40:00,
2013-07-16 02:45:00,79.0,73.0,30.04,East,89,5.8,5.8,82,0.00,CLR,,0.00,WeatherDisplay:10.37,2013-07-16 06:45:00,
2013-07-16 02:50:00,78.7,73.1,30.04,East,90,5.8,5.8,83,0.00,CLR,,0.00,WeatherDisplay:10.37,2013-07-16 06:50:00,
2013-07-16 02:55:00,78.6,73.0,30.04,ESE,113,4.6,4.6,83,0.00,CLR,,0.00,WeatherDisplay:10.37,2013-07-16 06:55:00,
2013-07-16 03:00:00,78.5,72.5,30.04,East,88,6.0,6.0,82,0.00,CLR,,0.00,WeatherDisplay:10.37,2013-07-16 07:00:00,
2013-07-16 03:05:00,78.6,72.6,30.04,ESE,109,10.4,10.4,82,0.00,CLR,,0.00,WeatherDisplay:10.37,2013-07-16 07:05:00,
2013-07-16 03:10:00,78.6,72.3,30.04,East,93,9.2,9.2,81,0.00,CLR,,0.00,WeatherDisplay:10.37,2013-07-16 07:10:00,
2013-07-16 03:15:00,78.7,72.7,30.04,ESE,117,5.8,5.8,82,0.00,CLR,,0.00,WeatherDisplay:10.37,2013-07-16 07:15:00,
2013-07-16 03:20:00,78.7,72.7,30.04,East,89,11.5,11.5,82,0.00,CLR,,0.00,WeatherDisplay:10.37,2013-07-16 07:20:00,
2013-07-16 03:25:00,78.7,72.7,30.04,East,79,4.6,4.6,82,0.00,CLR,,0.00,WeatherDisplay:10.37,2013-07-16 07:25:00,
2013-07-16 03:30:00,78.6,73.0,30.03,ESE,109,6.9,6.9,83,0.00,CLR,,0.00,WeatherDisplay:10.37,2013-07-16 07:30:00,
2013-07-16 03:35:00,78.6,72.6,30.03,East,82,5.8,5.8,82,0.00,CLR,,0.00,WeatherDisplay:10.37,2013-07-16 07:35:00,
2013-07-16 03:40:00,78.7,72.7,30.03,ESE,119,5.8,5.8,82,0.00,CLR,,0.00,WeatherDisplay:10.37,2013-07-16 07:40:00,
2013-07-16 03:45:00,78.6,72.6,30.03,ESE,120,6.9,6.9,82,0.00,CLR,,0.00,WeatherDisplay:10.37,2013-07-16 07:45:00,
2013-07-16 03:50:00,78.6,72.6,30.03,SE,134,9.2,9.2,82,0.00,CLR,,0.00,WeatherDisplay:10.37,2013-07-16 07:50:00,
2013-07-16 03:55:00,78.7,73.1,30.03,East,81,6.9,6.9,83,0.00,CLR,,0.00,WeatherDisplay:10.37,2013-07-16 07:55:00,
2013-07-16 04:00:00,78.7,73.1,30.03,East,98,6.9,6.9,83,0.00,CLR,,0.00,WeatherDisplay:10.37,2013-07-16 08:00:00,
2013-07-16 04:05:00,78.6,72.6,30.03,East,81,11.5,11.5,82,0.00,CLR,,0.00,WeatherDisplay:10.37,2013-07-16 08:05:00,
2013-07-16 04:10:00,78.7,72.7,30.03,ESE,121,11.5,11.5,82,0.00,CLR,,0.00,WeatherDisplay:10.37,2013-07-16 08:10:00,
2013-07-16 04:15:00,78.7,73.1,30.03,ENE,71,9.2,9.2,83,0.00,CLR,,0.00,WeatherDisplay:10.37,2013-07-16 08:15:00,
2013-07-16 04:20:00,78.7,73.1,30.03,East,101,7.0,7.0,83,0.00,CLR,,0.00,WeatherDisplay:10.37,2013-07-16 08:20:00,
2013-07-16 04:25:00,78.7,73.1,30.03,ESE,109,8.1,8.1,83,0.00,CLR,,0.00,WeatherDisplay:10.37,2013-07-16 08:25:00,
2013-07-16 04:30:00,78.3,71.2,30.04,ESE,105,24.2,24.2,79,0.00,CLR,,0.00,WeatherDisplay:10.37,2013-07-16 08:30:00,
2013-07-16 04:35:00,77.5,71.6,30.04,SSE,158,22.0,22.0,82,0.00,CLR,,0.00,WeatherDisplay:10.37,2013-07-16 08:35:00,
2013-07-16 04:40:00,75.8,71.3,30.04,SE,145,17.3,17.3,86,0.04,RA,,0.05,WeatherDisplay:10.37,2013-07-16 08:40:00,
2013-07-16 04:45:00,74.5,70.7,30.04,SE,131,11.5,11.5,88,0.05,RA,,0.05,WeatherDisplay:10.37,2013-07-16 08:45:00,
2013-07-16 04:50:00,73.8,70.7,30.03,ESE,122,10.4,10.4,90,0.05,RA,,0.05,WeatherDisplay:10.37,2013-07-16 08:50:00,
2013-07-16 04:55:00,73.5,70.7,30.03,ESE,121,5.8,5.8,91,0.05,CLR,,0.05,WeatherDisplay:10.37,2013-07-16 08:55:00,
2013-07-16 05:00:00,73.5,70.7,30.03,ESE,105,4.6,4.6,91,0.05,CLR,,0.05,WeatherDisplay:10.37,2013-07-16 09:00:00,
2013-07-16 05:05:00,73.7,71.5,30.03,ESE,117,6.0,6.0,93,0.05,CLR,,0.05,WeatherDisplay:10.37,2013-07-16 09:05:00,
2013-07-16 05:10:00,73.8,71.3,30.04,SE,125,4.0,4.0,92,0.05,CLR,,0.05,WeatherDisplay:10.37,2013-07-16 09:10:00,
2013-07-16 05:15:00,73.9,71.4,30.04,SSE,168,3.5,3.5,92,0.05,CLR,,0.05,WeatherDisplay:10.37,2013-07-16 09:15:00,
2013-07-16 05:20:00,73.8,71.6,30.04,South,175,5.0,5.0,93,0.05,CLR,,0.05,WeatherDisplay:10.37,2013-07-16 09:20:00,
2013-07-16 05:25:00,73.7,71.5,30.04,South,186,4.6,4.6,93,0.05,CLR,,0.05,WeatherDisplay:10.37,2013-07-16 09:25:00,
2013-07-16 05:30:00,73.5,71.4,30.04,South,181,4.6,4.6,93,0.05,CLR,,0.05,WeatherDisplay:10.37,2013-07-16 09:30:00,
2013-07-16 05:35:00,73.5,71.4,30.04,SSE,165,2.3,2.3,93,0.05,CLR,,0.05,WeatherDisplay:10.37,2013-07-16 09:35:00,
2013-07-16 05:40:00,73.5,71.4,30.04,SE,131,3.5,3.5,93,0.01,CLR,,0.05,WeatherDisplay:10.37,2013-07-16 09:40:00,
2013-07-16 05:45:00,73.5,71.4,30.04,SE,131,1.2,0.0,93,0.00,CLR,,0.05,WeatherDisplay:10.37,2013-07-16 09:45:00,
2013-07-16 05:50:00,73.6,71.4,30.04,East,87,2.3,2.3,93,0.00,CLR,,0.05,WeatherDisplay:10.37,2013-07-16 09:50:00,
2013-07-16 05:55:00,73.7,71.5,30.04,SE,128,3.5,3.5,93,0.00,CLR,,0.05,WeatherDisplay:10.37,2013-07-16 09:55:00,
2013-07-16 06:00:00,73.9,71.1,30.04,ESE,123,2.3,2.3,91,0.00,CLR,,0.05,WeatherDisplay:10.37,2013-07-16 10:00:00,
2013-07-16 06:05:00,74.1,71.0,30.04,SE,132,3.5,3.5,90,0.00,CLR,,0.05,WeatherDisplay:10.37,2013-07-16 10:05:00,
2013-07-16 06:10:00,74.4,71.3,30.04,ESE,108,5.0,5.0,90,0.00,CLR,,0.05,WeatherDisplay:10.37,2013-07-16 10:10:00,
2013-07-16 06:15:00,74.8,71.7,30.04,SE,133,7.0,7.0,90,0.00,CLR,,0.05,WeatherDisplay:10.37,2013-07-16 10:15:00,
2013-07-16 06:20:00,75.1,72.0,30.04,ESE,123,6.0,6.0,90,0.00,CLR,,0.05,WeatherDisplay:10.37,2013-07-16 10:20:00,
2013-07-16 06:25:00,75.3,71.8,30.03,SE,128,4.6,4.6,89,0.00,CLR,,0.05,WeatherDisplay:10.37,2013-07-16 10:25:00,
2013-07-16 06:30:00,75.5,72.0,30.04,ESE,115,6.0,6.0,89,0.00,CLR,,0.05,WeatherDisplay:10.37,2013-07-16 10:30:00,
2013-07-16 06:35:00,75.6,72.1,30.04,SE,124,4.6,4.6,89,0.00,CLR,,0.05,WeatherDisplay:10.37,2013-07-16 10:35:00,
2013-07-16 06:40:00,75.7,72.2,30.04,East,84,3.5,3.5,89,0.00,CLR,,0.05,WeatherDisplay:10.37,2013-07-16 10:40:00,
2013-07-16 06:45:00,75.9,72.4,30.04,East,90,3.5,3.5,89,0.00,CLR,,0.05,WeatherDisplay:10.37,2013-07-16 10:45:00,
2013-07-16 06:50:00,76.0,72.5,30.04,ESE,115,3.5,3.5,89,0.00,CLR,,0.05,WeatherDisplay:10.37,2013-07-16 10:50:00,
2013-07-16 06:55:00,76.2,72.7,30.05,East,82,4.6,4.6,89,0.00,CLR,,0.05,WeatherDisplay:10.37,2013-07-16 10:55:00,
2013-07-16 07:00:00,76.5,73.0,30.05,East,79,4.0,4.0,89,0.00,CLR,,0.05,WeatherDisplay:10.37,2013-07-16 11:00:00,
2013-07-16 07:05:00,76.7,72.5,30.04,ENE,74,6.0,6.0,87,0.00,CLR,,0.05,WeatherDisplay:10.37,2013-07-16 11:05:00,
2013-07-16 07:10:00,77.0,72.8,30.04,East,94,5.8,5.8,87,0.00,CLR,,0.05,WeatherDisplay:10.37,2013-07-16 11:10:00,
2013-07-16 07:15:00,77.5,73.0,30.05,ENE,77,8.1,8.1,86,0.00,CLR,,0.05,WeatherDisplay:10.37,2013-07-16 11:15:00,
2013-07-16 07:20:00,77.9,73.7,30.05,East,84,5.8,5.8,87,0.00,CLR,,0.05,WeatherDisplay:10.37,2013-07-16 11:20:00,
2013-07-16 07:25:00,78.2,72.6,30.05,ESE,110,12.7,12.7,83,0.00,CLR,,0.05,WeatherDisplay:10.37,2013-07-16 11:25:00,
2013-07-16 07:30:00,78.4,72.1,30.05,ESE,108,6.9,6.9,81,0.00,CLR,,0.05,WeatherDisplay:10.37,2013-07-16 11:30:00,
2013-07-16 07:35:00,78.2,71.5,30.05,NE,56,11.5,11.5,80,0.00,CLR,,0.05,WeatherDisplay:10.37,2013-07-16 11:35:00,
2013-07-16 07:40:00,78.1,71.1,30.05,East,84,10.4,10.4,79,0.00,CLR,,0.05,WeatherDisplay:10.37,2013-07-16 11:40:00,
2013-07-16 07:45:00,78.2,71.5,30.05,ENE,69,10.4,10.4,80,0.00,CLR,,0.05,WeatherDisplay:10.37,2013-07-16 11:45:00,
2013-07-16 07:50:00,78.4,72.1,30.05,ENE,77,10.4,10.4,81,0.00,CLR,,0.05,WeatherDisplay:10.37,2013-07-16 11:50:00,
2013-07-16 07:55:00,78.8,72.1,30.05,East,85,6.9,6.9,80,0.00,CLR,,0.05,WeatherDisplay:10.37,2013-07-16 11:55:00,
2013-07-16 08:00:00,79.3,72.6,30.05,East,79,9.2,9.2,80,0.00,CLR,,0.05,WeatherDisplay:10.37,2013-07-16 12:00:00,
2013-07-16 08:05:00,79.8,73.1,30.05,East,98,5.8,5.8,80,0.00,CLR,,0.05,WeatherDisplay:10.37,2013-07-16 12:05:00,
2013-07-16 08:10:00,80.2,73.1,30.05,East,87,13.8,13.8,79,0.00,CLR,,0.05,WeatherDisplay:10.37,2013-07-16 12:10:00,
2013-07-16 08:15:00,80.6,73.1,30.06,ENE,69,14.0,14.0,78,0.00,CLR,,0.05,WeatherDisplay:10.37,2013-07-16 12:15:00,
2013-07-16 08:20:00,80.7,73.2,30.06,ENE,76,13.8,13.8,78,0.00,CLR,,0.05,WeatherDisplay:10.37,2013-07-16 12:20:00,
2013-07-16 08:25:00,80.8,73.3,30.06,ENE,57,11.5,11.5,78,0.00,CLR,,0.05,WeatherDisplay:10.37,2013-07-16 12:25:00,
2013-07-16 08:30:00,81.0,73.5,30.06,ENE,77,15.0,15.0,78,0.00,CLR,,0.05,WeatherDisplay:10.37,2013-07-16 12:30:00,
2013-07-16 08:35:00,81.1,73.6,30.07,ENE,72,11.5,11.5,78,0.00,CLR,,0.05,WeatherDisplay:10.37,2013-07-16 12:35:00,
2013-07-16 08:40:00,81.4,73.9,30.07,ENE,70,11.5,11.5,78,0.00,CLR,,0.05,WeatherDisplay:10.37,2013-07-16 12:40:00,
2013-07-16 08:45:00,81.6,73.7,30.07,East,88,12.7,12.7,77,0.00,CLR,,0.05,WeatherDisplay:10.37,2013-07-16 12:45:00,
2013-07-16 08:50:00,81.4,73.5,30.07,East,82,13.8,13.8,77,0.00,CLR,,0.05,WeatherDisplay:10.37,2013-07-16 12:50:00,
2013-07-16 08:55:00,81.5,73.6,30.07,East,96,15.0,15.0,77,0.00,CLR,,0.05,WeatherDisplay:10.37,2013-07-16 12:55:00,
2013-07-16 09:00:00,81.4,73.5,30.07,ESE,113,13.8,13.8,77,0.00,CLR,,0.05,WeatherDisplay:10.37,2013-07-16 13:00:00,
2013-07-16 09:05:00,81.2,73.7,30.07,East,84,19.6,19.6,78,0.00,CLR,,0.05,WeatherDisplay:10.37,2013-07-16 13:05:00,
2013-07-16 09:10:00,81.6,74.5,30.08,ENE,65,11.5,11.5,79,0.00,CLR,,0.05,WeatherDisplay:10.37,2013-07-16 13:10:00,
2013-07-16 09:15:00,81.6,74.5,30.08,East,80,13.8,13.8,79,0.00,CLR,,0.05,WeatherDisplay:10.37,2013-07-16 13:15:00,
2013-07-16 09:20:00,81.3,74.2,30.08,ENE,63,15.0,15.0,79,0.00,CLR,,0.05,WeatherDisplay:10.37,2013-07-16 13:20:00,
2013-07-16 09:25:00,81.4,74.6,30.08,East,84,13.8,13.8,80,0.00,CLR,,0.05,WeatherDisplay:10.37,2013-07-16 13:25:00,
2013-07-16 09:30:00,81.4,74.3,30.08,ENE,63,18.4,18.4,79,0.00,CLR,,0.05,WeatherDisplay:10.37,2013-07-16 13:30:00,
2013-07-16 09:35:00,81.3,74.2,30.08,NE,51,13.8,13.8,79,0.00,CLR,,0.05,WeatherDisplay:10.37,2013-07-16 13:35:00,
2013-07-16 09:40:00,81.5,74.7,30.08,ESE,117,18.4,18.4,80,0.00,CLR,,0.05,WeatherDisplay:10.37,2013-07-16 13:40:00,
2013-07-16 09:45:00,80.2,71.6,30.09,SE,141,25.3,25.3,75,0.00,CLR,,0.05,WeatherDisplay:10.37,2013-07-16 13:45:00,
2013-07-16 09:50:00,77.4,70.4,30.09,SE,146,11.5,11.5,79,0.00,CLR,,0.05,WeatherDisplay:10.37,2013-07-16 13:50:00,
2013-07-16 09:55:00,75.4,70.2,30.09,SSE,164,19.6,19.6,84,0.00,CLR,,0.05,WeatherDisplay:10.37,2013-07-16 13:55:00,
2013-07-16 10:00:00,73.9,70.1,30.08,South,187,18.4,18.4,88,0.02,RA,,0.07,WeatherDisplay:10.37,2013-07-16 14:00:00,
2013-07-16 10:05:00,73.1,70.0,30.10,South,169,12.7,12.7,90,0.03,RA,,0.08,WeatherDisplay:10.37,2013-07-16 14:05:00,
2013-07-16 10:10:00,72.7,70.2,30.10,SE,135,13.8,13.8,92,0.06,RA,,0.15,WeatherDisplay:10.37,2013-07-16 14:10:00,
2013-07-16 10:15:00,72.5,70.4,30.10,SSE,165,11.5,11.5,93,0.18,RA,,0.30,WeatherDisplay:10.37,2013-07-16 14:15:00,
2013-07-16 10:20:00,72.5,70.7,30.09,SSE,152,17.3,17.3,94,0.32,RA,,0.38,WeatherDisplay:10.37,2013-07-16 14:20:00,
2013-07-16 10:25:00,72.4,70.9,30.09,South,182,11.5,11.5,95,0.36,RA,,0.41,WeatherDisplay:10.37,2013-07-16 14:25:00,
2013-07-16 10:30:00,72.5,71.0,30.10,SSE,151,9.2,9.2,95,0.37,RA,,0.42,WeatherDisplay:10.37,2013-07-16 14:30:00,
2013-07-16 10:35:00,72.7,71.2,30.10,SSE,168,4.6,4.6,95,0.38,RA,,0.43,WeatherDisplay:10.37,2013-07-16 14:35:00,
2013-07-16 10:40:00,72.9,71.4,30.10,South,177,6.9,6.9,95,0.38,RA,,0.43,WeatherDisplay:10.37,2013-07-16 14:40:00,
2013-07-16 10:45:00,73.0,71.5,30.10,SSE,165,10.4,10.4,95,0.38,CLR,,0.43,WeatherDisplay:10.37,2013-07-16 14:45:00,
2013-07-16 10:50:00,73.1,71.6,30.10,SE,130,6.9,6.9,95,0.38,CLR,,0.43,WeatherDisplay:10.37,2013-07-16 14:50:00,
2013-07-16 10:55:00,73.0,71.2,30.11,ESE,122,9.2,9.2,94,0.40,RA,,0.45,WeatherDisplay:10.37,2013-07-16 14:55:00,
2013-07-16 11:00:00,73.1,71.0,30.10,SSE,159,16.1,16.1,93,0.39,RA,,0.46,WeatherDisplay:10.37,2013-07-16 15:00:00,
2013-07-16 11:05:00,73.3,71.2,30.10,South,180,11.5,11.5,93,0.38,RA,,0.46,WeatherDisplay:10.37,2013-07-16 15:05:00,
2013-07-16 11:10:00,73.7,71.9,30.10,SSW,194,10.0,10.0,94,0.35,,,0.46,WeatherDisplay:10.37,2013-07-16 15:10:00,
2013-07-16 11:15:00,73.7,71.9,30.11,SSE,160,17.3,17.3,94,0.23,CLR,,0.46,WeatherDisplay:10.37,2013-07-16 15:15:00,
2013-07-16 11:20:00,73.2,70.7,30.10,SE,138,18.4,18.4,92,0.10,RA,,0.47,WeatherDisplay:10.37,2013-07-16 15:20:00,
2013-07-16 11:25:00,72.9,70.4,30.10,SSE,155,18.4,18.4,92,0.06,RA,,0.47,WeatherDisplay:10.37,2013-07-16 15:25:00,
2013-07-16 11:30:00,73.1,71.0,30.11,SSE,149,17.3,17.3,93,0.05,CLR,,0.47,WeatherDisplay:10.37,2013-07-16 15:30:00,
2013-07-16 11:35:00,73.3,71.2,30.11,SSE,165,19.6,19.6,93,0.04,CLR,,0.47,WeatherDisplay:10.37,2013-07-16 15:35:00,
2013-07-16 11:40:00,73.7,71.2,30.11,South,182,23.0,23.0,92,0.04,CLR,,0.47,WeatherDisplay:10.37,2013-07-16 15:40:00,
2013-07-16 11:45:00,73.9,71.1,30.12,SSE,161,16.1,16.1,91,0.04,CLR,,0.47,WeatherDisplay:10.37,2013-07-16 15:45:00,
2013-07-16 11:50:00,73.4,70.6,30.14,SE,142,20.7,20.7,91,0.04,CLR,,0.49,WeatherDisplay:10.37,2013-07-16 15:50:00,
2013-07-16 11:55:00,72.3,70.2,30.14,SE,136,25.3,25.3,93,0.12,RA,,0.57,WeatherDisplay:10.37,2013-07-16 15:55:00,
2013-07-16 12:00:00,71.3,69.2,30.14,SSE,153,23.0,23.0,93,0.12,RA,,0.58,WeatherDisplay:10.37,2013-07-16 16:00:00,
2013-07-16 12:05:00,71.2,69.4,30.14,SE,143,21.9,21.9,94,0.13,RA,,0.59,WeatherDisplay:10.37,2013-07-16 16:05:00,
2013-07-16 12:10:00,71.4,69.9,30.14,SSE,157,11.5,11.5,95,0.14,RA,,0.62,WeatherDisplay:10.37,2013-07-16 16:10:00,
2013-07-16 12:15:00,71.5,70.0,30.14,SSE,161,15.0,15.0,95,0.17,RA,,0.63,WeatherDisplay:10.37,2013-07-16 16:15:00,
2013-07-16 12:20:00,71.3,69.5,30.13,ENE,71,16.1,16.1,94,0.17,RA,,0.64,WeatherDisplay:10.37,2013-07-16 16:20:00,
2013-07-16 12:25:00,71.2,69.7,30.13,South,177,5.8,5.8,95,0.17,RA,,0.64,WeatherDisplay:10.37,2013-07-16 16:25:00,
2013-07-16 12:30:00,71.2,69.7,30.12,SE,137,5.8,5.8,95,0.19,RA,,0.66,WeatherDisplay:10.37,2013-07-16 16:30:00,
2013-07-16 12:35:00,71.3,69.8,30.13,SE,130,5.8,5.8,95,0.20,RA,,0.67,WeatherDisplay:10.37,2013-07-16 16:35:00,
2013-07-16 12:40:00,71.5,70.0,30.13,South,175,4.6,4.7,95,0.20,RA,,0.67,WeatherDisplay:10.37,2013-07-16 16:40:00,
2013-07-16 12:45:00,71.7,70.5,30.12,South,181,9.2,9.2,96,0.20,,,0.67,WeatherDisplay:10.37,2013-07-16 16:45:00,
2013-07-16 12:50:00,72.1,70.6,30.12,ESE,116,12.7,12.7,95,0.20,CLR,,0.67,WeatherDisplay:10.37,2013-07-16 16:50:00,
2013-07-16 12:55:00,72.4,70.9,30.12,SSE,167,9.2,9.2,95,0.10,CLR,,0.68,WeatherDisplay:10.37,2013-07-16 16:55:00,
2013-07-16 13:00:00,72.7,71.2,30.12,SSE,161,6.9,6.9,95,0.10,RA,,0.68,WeatherDisplay:10.37,2013-07-16 17:00:00,
2013-07-16 13:05:00,73.1,71.6,30.11,South,186,11.0,11.0,95,0.10,RA,,0.69,WeatherDisplay:10.37,2013-07-16 17:05:00,
2013-07-16 13:10:00,73.3,71.5,30.11,SE,127,6.9,6.9,94,0.09,RA,,0.69,WeatherDisplay:10.37,2013-07-16 17:10:00,
2013-07-16 13:15:00,73.6,71.8,30.11,SE,137,13.8,13.8,94,0.06,,,0.69,WeatherDisplay:10.37,2013-07-16 17:15:00,
2013-07-16 13:20:00,73.8,71.3,30.10,SE,132,13.8,13.8,92,0.06,RA,,0.70,WeatherDisplay:10.37,2013-07-16 17:20:00,
2013-07-16 13:25:00,74.1,71.3,30.10,SSE,151,10.4,10.4,91,0.06,RA,,0.70,WeatherDisplay:10.37,2013-07-16 17:25:00,
2013-07-16 13:30:00,74.3,71.5,30.10,SE,138,11.5,11.5,91,0.04,,,0.70,WeatherDisplay:10.37,2013-07-16 17:30:00,
2013-07-16 13:35:00,74.4,71.6,30.10,SSE,157,10.4,10.4,91,0.03,CLR,,0.70,WeatherDisplay:10.37,2013-07-16 17:35:00,
2013-07-16 13:40:00,74.4,70.9,30.10,SE,124,5.8,5.8,89,0.03,CLR,,0.70,WeatherDisplay:10.37,2013-07-16 17:40:00,
2013-07-16 13:45:00,74.7,71.2,30.10,SE,146,5.0,5.0,89,0.03,CLR,,0.70,WeatherDisplay:10.37,2013-07-16 17:45:00,
2013-07-16 13:50:00,74.9,71.1,30.09,SE,124,6.9,6.9,88,0.03,CLR,,0.70,WeatherDisplay:10.37,2013-07-16 17:50:00,
2013-07-16 13:55:00,75.3,71.2,30.09,SE,130,11.5,11.5,87,0.03,CLR,,0.70,WeatherDisplay:10.37,2013-07-16 17:55:00,
2013-07-16 14:00:00,75.8,71.3,30.09,SE,136,10.4,10.4,86,0.02,CLR,,0.70,WeatherDisplay:10.37,2013-07-16 18:00:00,
2013-07-16 14:05:00,76.3,70.8,30.09,SE,134,13.0,13.0,83,0.01,CLR,,0.70,WeatherDisplay:10.37,2013-07-16 18:05:00,
2013-07-16 14:10:00,76.7,71.1,30.09,SE,146,9.2,9.2,83,0.01,CLR,,0.70,WeatherDisplay:10.37,2013-07-16 18:10:00,
2013-07-16 14:15:00,77.0,70.7,30.09,SSE,160,6.9,6.9,81,0.01,CLR,,0.70,WeatherDisplay:10.37,2013-07-16 18:15:00,
2013-07-16 14:20:00,77.3,71.4,30.09,SE,140,5.8,5.8,82,0.00,CLR,,0.70,WeatherDisplay:10.37,2013-07-16 18:20:00,
2013-07-16 14:25:00,77.6,70.6,30.10,SSE,158,11.5,11.5,79,0.00,CLR,,0.70,WeatherDisplay:10.37,2013-07-16 18:25:00,
2013-07-16 14:30:00,77.9,70.5,30.09,East,94,13.8,13.8,78,0.00,CLR,,0.70,WeatherDisplay:10.37,2013-07-16 18:30:00,
2013-07-16 14:35:00,78.2,70.4,30.09,ESE,121,11.5,11.5,77,0.00,CLR,,0.70,WeatherDisplay:10.37,2013-07-16 18:35:00,
2013-07-16 14:40:00,78.5,70.7,30.09,South,174,11.5,11.5,77,0.00,CLR,,0.70,WeatherDisplay:10.37,2013-07-16 18:40:00,
2013-07-16 14:45:00,78.8,70.2,30.08,ESE,105,12.7,12.7,75,0.00,CLR,,0.70,WeatherDisplay:10.37,2013-07-16 18:45:00,
2013-07-16 14:50:00,78.9,70.3,30.09,SE,130,10.4,10.4,75,0.00,CLR,,0.70,WeatherDisplay:10.37,2013-07-16 18:50:00,
2013-07-16 14:55:00,79.0,70.4,30.08,SE,144,11.5,11.5,75,0.00,CLR,,0.70,WeatherDisplay:10.37,2013-07-16 18:55:00,
2013-07-16 15:00:00,79.2,70.2,30.08,SE,130,10.4,10.4,74,0.00,CLR,,0.70,WeatherDisplay:10.37,2013-07-16 19:00:00,
2013-07-16 15:05:00,79.3,70.3,30.08,SSE,160,10.4,10.4,74,0.00,CLR,,0.70,WeatherDisplay:10.37,2013-07-16 19:05:00,
2013-07-16 15:10:00,79.8,71.6,30.07,SSE,165,5.8,5.8,76,0.00,CLR,,0.70,WeatherDisplay:10.37,2013-07-16 19:10:00,
2013-07-16 15:15:00,80.2,71.6,30.07,SE,135,11.5,11.5,75,0.00,CLR,,0.70,WeatherDisplay:10.37,2013-07-16 19:15:00,
2013-07-16 15:20:00,80.6,71.5,30.07,SE,144,10.4,10.4,74,0.00,CLR,,0.70,WeatherDisplay:10.37,2013-07-16 19:20:00,
2013-07-16 15:25:00,80.7,71.6,30.07,SSE,150,11.5,11.5,74,0.00,CLR,,0.70,WeatherDisplay:10.37,2013-07-16 19:25:00,
2013-07-16 15:30:00,80.7,72.8,30.07,SE,134,4.0,4.1,77,0.00,CLR,,0.70,WeatherDisplay:10.37,2013-07-16 19:30:00,
2013-07-16 15:35:00,80.6,71.9,30.07,ENE,68,9.2,9.2,75,0.00,CLR,,0.70,WeatherDisplay:10.37,2013-07-16 19:35:00,
2013-07-16 15:40:00,80.5,71.8,30.06,SSE,149,11.5,11.5,75,0.00,CLR,,0.70,WeatherDisplay:10.37,2013-07-16 19:40:00,
2013-07-16 15:45:00,80.5,72.2,30.06,SSE,148,12.7,12.7,76,0.00,CLR,,0.70,WeatherDisplay:10.37,2013-07-16 19:45:00,
2013-07-16 15:50:00,80.9,72.6,30.06,ESE,110,9.2,9.2,76,0.00,CLR,,0.70,WeatherDisplay:10.37,2013-07-16 19:50:00,
2013-07-16 15:55:00,80.9,72.6,30.06,SE,126,12.7,12.7,76,0.00,CLR,,0.70,WeatherDisplay:10.37,2013-07-16 19:55:00,
2013-07-16 16:00:00,80.5,72.6,30.06,ENE,74,11.5,11.5,77,0.00,CLR,,0.70,WeatherDisplay:10.37,2013-07-16 20:00:00,
2013-07-16 16:05:00,80.3,72.4,30.06,ESE,109,10.4,10.4,77,0.00,CLR,,0.70,WeatherDisplay:10.37,2013-07-16 20:05:00,
2013-07-16 16:10:00,80.2,72.7,30.06,SE,131,11.5,11.5,78,0.00,CLR,,0.70,WeatherDisplay:10.37,2013-07-16 20:10:00,
2013-07-16 16:15:00,80.2,72.7,30.06,East,98,11.5,11.5,78,0.00,CLR,,0.70,WeatherDisplay:10.37,2013-07-16 20:15:00,
2013-07-16 16:20:00,80.2,73.1,30.06,SE,144,13.0,13.0,79,0.00,CLR,,0.70,WeatherDisplay:10.37,2013-07-16 20:20:00,
2013-07-16 16:25:00,80.2,73.1,30.06,ESE,104,10.4,10.4,79,0.00,CLR,,0.70,WeatherDisplay:10.37,2013-07-16 20:25:00,
2013-07-16 16:30:00,80.4,73.3,30.06,ENE,75,9.2,9.2,79,0.00,CLR,,0.70,WeatherDisplay:10.37,2013-07-16 20:30:00,
2013-07-16 16:35:00,80.5,73.4,30.06,East,101,11.5,11.5,79,0.00,CLR,,0.70,WeatherDisplay:10.37,2013-07-16 20:35:00,
2013-07-16 16:40:00,80.4,73.3,30.06,ESE,121,13.8,13.8,79,0.00,CLR,,0.70,WeatherDisplay:10.37,2013-07-16 20:40:00,
2013-07-16 16:45:00,80.4,73.7,30.06,East,90,6.0,6.0,80,0.00,CLR,,0.70,WeatherDisplay:10.37,2013-07-16 20:45:00,
2013-07-16 16:50:00,80.8,73.7,30.05,East,88,11.5,11.5,79,0.00,CLR,,0.70,WeatherDisplay:10.37,2013-07-16 20:50:00,
2013-07-16 16:55:00,80.8,73.7,30.05,ENE,78,5.8,5.8,79,0.00,CLR,,0.70,WeatherDisplay:10.37,2013-07-16 20:55:00,
2013-07-16 17:00:00,80.8,73.7,30.05,East,94,9.2,9.2,79,0.00,CLR,,0.70,WeatherDisplay:10.37,2013-07-16 21:00:00,
2013-07-16 17:05:00,80.8,73.3,30.04,ENE,69,9.2,9.2,78,0.00,CLR,,0.70,WeatherDisplay:10.37,2013-07-16 21:05:00,
2013-07-16 17:10:00,80.7,73.2,30.05,East,84,9.2,9.2,78,0.00,CLR,,0.70,WeatherDisplay:10.37,2013-07-16 21:10:00,
2013-07-16 17:15:00,80.6,73.9,30.05,ENE,61,3.5,3.5,80,0.00,CLR,,0.70,WeatherDisplay:10.37,2013-07-16 21:15:00,
2013-07-16 17:20:00,80.6,73.9,30.05,ENE,65,9.0,9.0,80,0.00,CLR,,0.70,WeatherDisplay:10.37,2013-07-16 21:20:00,
2013-07-16 17:25:00,80.3,73.6,30.05,ENE,74,5.8,5.8,80,0.00,CLR,,0.70,WeatherDisplay:10.37,2013-07-16 21:25:00,
2013-07-16 17:30:00,80.2,73.5,30.05,East,80,5.8,5.8,80,0.00,CLR,,0.70,WeatherDisplay:10.37,2013-07-16 21:30:00,
2013-07-16 17:35:00,80.2,73.8,30.05,ENE,65,4.6,4.6,81,0.00,CLR,,0.70,WeatherDisplay:10.37,2013-07-16 21:35:00,
2013-07-16 17:40:00,80.3,73.9,30.05,ENE,72,6.0,6.0,81,0.00,CLR,,0.70,WeatherDisplay:10.37,2013-07-16 21:40:00,
2013-07-16 17:45:00,80.3,73.6,30.05,East,82,10.4,10.4,80,0.00,CLR,,0.70,WeatherDisplay:10.37,2013-07-16 21:45:00,
2013-07-16 17:50:00,80.2,73.5,30.05,ENE,65,6.9,6.9,80,0.00,CLR,,0.70,WeatherDisplay:10.37,2013-07-16 21:50:00,
2013-07-16 17:55:00,80.1,73.4,30.05,ENE,76,8.1,8.1,80,0.00,CLR,,0.70,WeatherDisplay:10.37,2013-07-16 21:55:00,
2013-07-16 18:00:00,80.0,73.3,30.05,East,90,6.9,6.9,80,0.00,CLR,,0.70,WeatherDisplay:10.37,2013-07-16 22:00:00,
2013-07-16 18:05:00,79.8,73.4,30.05,East,87,5.8,5.8,81,0.00,CLR,,0.70,WeatherDisplay:10.37,2013-07-16 22:05:00,
2013-07-16 18:10:00,79.9,73.5,30.06,ENE,61,7.0,7.0,81,0.00,CLR,,0.70,WeatherDisplay:10.37,2013-07-16 22:10:00,
2013-07-16 18:15:00,80.0,73.6,30.06,ENE,71,6.9,6.9,81,0.00,CLR,,0.70,WeatherDisplay:10.37,2013-07-16 22:15:00,
2013-07-16 18:20:00,80.1,73.7,30.06,East,90,5.8,5.8,81,0.00,CLR,,0.70,WeatherDisplay:10.37,2013-07-16 22:20:00,
2013-07-16 18:25:00,80.2,73.5,30.06,East,91,10.4,10.4,80,0.00,CLR,,0.70,WeatherDisplay:10.37,2013-07-16 22:25:00,
2013-07-16 18:30:00,80.2,73.5,30.06,ENE,74,8.1,8.1,80,0.00,CLR,,0.70,WeatherDisplay:10.37,2013-07-16 22:30:00,
2013-07-16 18:35:00,80.3,73.6,30.06,ENE,57,5.8,5.8,80,0.00,CLR,,0.70,WeatherDisplay:10.37,2013-07-16 22:35:00,
2013-07-16 18:40:00,80.5,73.4,30.06,ENE,65,10.4,10.4,79,0.00,CLR,,0.70,WeatherDisplay:10.37,2013-07-16 22:40:00,
2013-07-16 18:45:00,80.7,73.6,30.06,NE,39,9.2,9.2,79,0.00,CLR,,0.70,WeatherDisplay:10.37,2013-07-16 22:45:00,
2013-07-16 18:50:00,80.6,73.9,30.06,ENE,75,12.7,12.7,80,0.00,CLR,,0.70,WeatherDisplay:10.37,2013-07-16 22:50:00,
2013-07-16 18:55:00,80.2,73.5,30.06,NE,42,9.2,9.2,80,0.00,CLR,,0.70,WeatherDisplay:10.37,2013-07-16 22:55:00,
2013-07-16 19:00:00,79.8,73.4,30.05,NNE,24,13.8,13.8,81,0.00,CLR,,0.70,WeatherDisplay:10.37,2013-07-16 23:00:00,
2013-07-16 19:05:00,79.0,73.7,30.05,ENE,73,9.2,9.2,84,0.01,RA,,0.71,WeatherDisplay:10.37,2013-07-16 23:05:00,
2013-07-16 19:10:00,78.5,73.6,30.06,East,84,6.9,6.9,85,0.01,RA,,0.71,WeatherDisplay:10.37,2013-07-16 23:10:00,
2013-07-16 19:15:00,78.2,73.7,30.06,ENE,75,4.6,4.6,86,0.01,CLR,,0.71,WeatherDisplay:10.37,2013-07-16 23:15:00,
2013-07-16 19:20:00,78.1,73.6,30.07,ENE,70,10.4,10.4,86,0.01,CLR,,0.71,WeatherDisplay:10.37,2013-07-16 23:20:00,
2013-07-16 19:25:00,78.3,73.4,30.07,ENE,62,11.5,11.5,85,0.01,CLR,,0.71,WeatherDisplay:10.37,2013-07-16 23:25:00,
2013-07-16 19:30:00,78.5,73.3,30.07,ENE,72,10.4,10.4,84,0.01,CLR,,0.71,WeatherDisplay:10.37,2013-07-16 23:30:00,
2013-07-16 19:35:00,78.7,73.5,30.07,NE,49,10.4,10.4,84,0.01,CLR,,0.71,WeatherDisplay:10.37,2013-07-16 23:35:00,
2013-07-16 19:40:00,78.8,73.2,30.08,ENE,69,5.0,5.0,83,0.01,CLR,,0.71,WeatherDisplay:10.37,2013-07-16 23:40:00,
2013-07-16 19:45:00,78.9,73.3,30.08,ENE,65,10.4,10.4,83,0.01,CLR,,0.71,WeatherDisplay:10.37,2013-07-16 23:45:00,
2013-07-16 19:50:00,79.0,73.4,30.08,ENE,74,6.0,6.0,83,0.01,CLR,,0.71,WeatherDisplay:10.37,2013-07-16 23:50:00,
2013-07-16 19:55:00,79.0,73.4,30.08,ENE,74,11.5,11.5,83,0.01,CLR,,0.71,WeatherDisplay:10.37,2013-07-16 23:55:00,
2013-07-16 20:00:00,79.1,73.5,30.07,NE,56,10.0,10.0,83,0.01,CLR,,0.71,WeatherDisplay:10.37,2013-07-17 00:00:00,
2013-07-16 20:05:00,79.1,73.8,30.07,ENE,74,6.9,6.9,84,0.00,CLR,,0.71,WeatherDisplay:10.37,2013-07-17 00:05:00,
2013-07-16 20:10:00,79.0,73.4,30.07,NE,50,10.4,10.4,83,0.00,CLR,,0.71,WeatherDisplay:10.37,2013-07-17 00:10:00,
2013-07-16 20:15:00,79.0,73.7,30.07,NE,38,6.9,6.9,84,0.00,CLR,,0.71,WeatherDisplay:10.37,2013-07-17 00:15:00,
2013-07-16 20:20:00,78.9,73.7,30.07,ENE,70,3.5,3.5,84,0.00,CLR,,0.71,WeatherDisplay:10.37,2013-07-17 00:20:00,
2013-07-16 20:25:00,78.9,73.7,30.07,ENE,66,3.5,3.5,84,0.00,CLR,,0.71,WeatherDisplay:10.37,2013-07-17 00:25:00,
2013-07-16 20:30:00,78.9,73.7,30.07,ENE,66,5.8,5.8,84,0.00,CLR,,0.71,WeatherDisplay:10.37,2013-07-17 00:30:00,
2013-07-16 20:35:00,78.8,73.9,30.06,ENE,58,3.5,3.5,85,0.00,CLR,,0.71,WeatherDisplay:10.37,2013-07-17 00:35:00,
2013-07-16 20:40:00,78.8,73.9,30.06,NE,44,3.5,3.5,85,0.00,CLR,,0.71,WeatherDisplay:10.37,2013-07-17 00:40:00,
2013-07-16 20:45:00,78.7,73.8,30.06,ENE,69,3.5,3.5,85,0.00,CLR,,0.71,WeatherDisplay:10.37,2013-07-17 00:45:00,
2013-07-16 20:50:00,78.7,73.8,30.06,ENE,66,4.6,4.6,85,0.00,CLR,,0.71,WeatherDisplay:10.37,2013-07-17 00:50:00,
2013-07-16 20:55:00,78.7,73.5,30.07,NE,52,4.6,4.6,84,0.00,CLR,,0.71,WeatherDisplay:10.37,2013-07-17 00:55:00,
2013-07-16 21:00:00,78.7,73.5,30.07,ENE,76,3.5,3.5,84,0.00,CLR,,0.71,WeatherDisplay:10.37,2013-07-17 01:00:00,
2013-07-16 21:05:00,78.8,73.9,30.07,ENE,61,3.5,3.5,85,0.00,CLR,,0.71,WeatherDisplay:10.37,2013-07-17 01:05:00,
2013-07-16 21:10:00,78.7,73.8,30.07,ENE,69,3.5,3.5,85,0.00,CLR,,0.71,WeatherDisplay:10.37,2013-07-17 01:10:00,
2013-07-16 21:15:00,78.6,73.7,30.07,ENE,78,4.6,4.6,85,0.00,CLR,,0.71,WeatherDisplay:10.37,2013-07-17 01:15:00,
2013-07-16 21:20:00,78.7,73.8,30.08,ENE,72,5.0,5.0,85,0.00,CLR,,0.71,WeatherDisplay:10.37,2013-07-17 01:20:00,
2013-07-16 21:25:00,78.6,73.7,30.08,ENE,57,4.6,4.6,85,0.00,CLR,,0.71,WeatherDisplay:10.37,2013-07-17 01:25:00,
2013-07-16 21:30:00,78.6,74.1,30.08,East,84,3.5,3.5,86,0.00,CLR,,0.71,WeatherDisplay:10.37,2013-07-17 01:30:00,
2013-07-16 21:35:00,78.5,74.0,30.08,ENE,62,4.0,4.0,86,0.00,CLR,,0.71,WeatherDisplay:10.37,2013-07-17 01:35:00,
2013-07-16 21:40:00,78.4,73.9,30.09,East,80,4.6,4.6,86,0.00,CLR,,0.71,WeatherDisplay:10.37,2013-07-17 01:40:00,
2013-07-16 21:45:00,78.5,74.0,30.09,East,79,4.6,4.8,86,0.00,CLR,,0.71,WeatherDisplay:10.37,2013-07-17 01:45:00,
2013-07-16 21:50:00,78.5,74.0,30.09,ENE,70,5.8,5.8,86,0.00,CLR,,0.71,WeatherDisplay:10.37,2013-07-17 01:50:00,
2013-07-16 21:55:00,78.6,73.7,30.09,East,83,5.8,5.8,85,0.00,CLR,,0.71,WeatherDisplay:10.37,2013-07-17 01:55:00,
2013-07-16 22:00:00,78.7,73.8,30.09,East,86,6.9,6.9,85,0.00,CLR,,0.71,WeatherDisplay:10.37,2013-07-17 02:00:00,
2013-07-16 22:05:00,78.8,73.6,30.09,East,88,6.9,6.9,84,0.00,CLR,,0.71,WeatherDisplay:10.37,2013-07-17 02:05:00,
2013-07-16 22:10:00,78.8,73.6,30.09,ENE,68,5.8,5.8,84,0.00,CLR,,0.71,WeatherDisplay:10.37,2013-07-17 02:10:00,
2013-07-16 22:15:00,78.9,73.7,30.09,ENE,77,6.9,6.9,84,0.00,CLR,,0.71,WeatherDisplay:10.37,2013-07-17 02:15:00,
2013-07-16 22:20:00,78.8,73.6,30.09,East,80,6.0,6.0,84,0.00,CLR,,0.71,WeatherDisplay:10.37,2013-07-17 02:20:00,
2013-07-16 22:25:00,78.9,73.7,30.09,East,79,4.6,4.6,84,0.00,CLR,,0.71,WeatherDisplay:10.37,2013-07-17 02:25:00,
2013-07-16 22:30:00,78.9,73.7,30.09,ESE,117,3.5,3.5,84,0.00,CLR,,0.71,WeatherDisplay:10.37,2013-07-17 02:30:00,
2013-07-16 22:35:00,78.9,74.0,30.09,East,101,3.5,3.5,85,0.00,CLR,,0.71,WeatherDisplay:10.37,2013-07-17 02:35:00,
2013-07-16 22:40:00,78.9,74.0,30.09,East,101,3.5,3.5,85,0.00,CLR,,0.71,WeatherDisplay:10.37,2013-07-17 02:40:00,
2013-07-16 22:45:00,78.8,73.9,30.08,East,90,3.5,3.5,85,0.00,CLR,,0.71,WeatherDisplay:10.37,2013-07-17 02:45:00,
2013-07-16 22:50:00,78.7,74.2,30.08,East,96,3.5,3.5,86,0.00,CLR,,0.71,WeatherDisplay:10.37,2013-07-17 02:50:00,
2013-07-16 22:55:00,78.5,74.0,30.08,East,96,4.6,4.6,86,0.00,CLR,,0.71,WeatherDisplay:10.37,2013-07-17 02:55:00,
2013-07-16 23:00:00,78.4,74.2,30.09,ESE,117,3.5,3.5,87,0.00,CLR,,0.71,WeatherDisplay:10.37,2013-07-17 03:00:00,
2013-07-16 23:05:00,78.4,74.2,30.09,ESE,105,5.8,5.8,87,0.00,CLR,,0.71,WeatherDisplay:10.37,2013-07-17 03:05:00,
2013-07-16 23:10:00,78.4,74.5,30.09,East,96,5.0,5.0,88,0.00,CLR,,0.71,WeatherDisplay:10.37,2013-07-17 03:10:00,
2013-07-16 23:15:00,78.4,74.5,30.09,East,98,6.9,6.9,88,0.00,CLR,,0.71,WeatherDisplay:10.37,2013-07-17 03:15:00,
2013-07-16 23:20:00,78.4,74.5,30.09,East,89,3.5,3.5,88,0.00,CLR,,0.71,WeatherDisplay:10.37,2013-07-17 03:20:00,
2013-07-16 23:25:00,78.3,74.5,30.09,East,82,4.0,4.0,88,0.00,CLR,,0.71,WeatherDisplay:10.37,2013-07-17 03:25:00,
2013-07-16 23:30:00,78.3,74.5,30.09,East,80,4.6,4.6,88,0.00,CLR,,0.71,WeatherDisplay:10.37,2013-07-17 03:30:00,
2013-07-16 23:35:00,78.2,74.4,30.09,ESE,111,3.5,3.5,88,0.00,CLR,,0.71,WeatherDisplay:10.37,2013-07-17 03:35:00,
2013-07-16 23:40:00,78.2,74.4,30.09,East,82,4.6,4.6,88,0.00,CLR,,0.71,WeatherDisplay:10.37,2013-07-17 03:40:00,
2013-07-16 23:45:00,78.2,74.4,30.09,East,92,3.5,3.5,88,0.00,CLR,,0.71,WeatherDisplay:10.37,2013-07-17 03:45:00,
2013-07-16 23:50:00,78.1,74.3,30.09,East,82,5.8,5.8,88,0.00,CLR,,0.71,WeatherDisplay:10.37,2013-07-17 03:50:00,
2013-07-16 23:55:00,78.1,74.3,30.09,East,100,4.6,4.6,88,0.00,CLR,,0.71,WeatherDisplay:10.37,2013-07-17 03:55:00,